Weather History for KCAD - November, 2013

Change the Weather History Date:

Thursday, November 28, 2013

  Actual Average Record
Temperature  
Mean Temperature 10 °F -  
Max Temperature 20 °F 35 °F 62 °F (1990)
Min Temperature 1 °F 23 °F 0 °F (1955)
Degree Days  
Heating Degree Days 54    
Moisture  
Dew Point 12 °F    
Average Humidity 91    
Maximum Humidity 98    
Minimum Humidity 85    
Precipitation  
Precipitation 0.00 in - - ()
Sea Level Pressure  
Sea Level Pressure 30.19 in    
Wind  
Wind Speed 2 mph (ESE)    
Max Wind Speed 8 mph    
Max Gust Speed -    
Visibility 6 miles    
Events Snow    
Averages and records for this station are not official NWS values.
T = Trace of Precipitation, MM = Missing Value Source: NWS Daily Summary

Daily Weather History Graph

Daily Weather History Graph

Search for Another Location

Airport or City:

Trip Planner

Search our weather history database for the weather conditions in past years. The results will help you decide how hot, cold, wet, or windy it might be!

Date:

Astronomy

Nov. 28, 2013 Rise Set
Actual Time 7:54 AM EST 5:05 PM EST
Civil Twilight 7:21 AM EST 5:37 PM EST
Nautical Twilight 6:45 AM EST 6:13 PM EST
Astronomical Twilight 6:10 AM EST 6:48 PM EST
Moon 2:46 AM EST (11/28) 2:23 PM EST (11/28)
Length of Visible Light 10h 15m
Length of Day
9h 11m
Waning Crescent, 22% of the Moon is Illuminated
Nov 28
Waning Crescent
Dec 2
New
Dec 9
First Quarter
Dec 17
Full
Dec 25
Last Quarter

Hourly Weather History & Observations

Time (EST) Temp. Windchill Dew Point Humidity Pressure Visibility Wind Dir Wind Speed Gust Speed Precip Events Conditions
12:15 AM 13.3 °F - 12.2 °F 95% 30.12 in 10.0 mi Calm Calm - N/A Snow Light Snow
12:35 AM 12.4 °F - 9.9 °F 90% 30.13 in 5.0 mi Calm Calm - N/A Snow Light Snow
12:55 AM 8.2 °F - 7.3 °F 96% 30.12 in 7.0 mi Calm Calm - N/A Snow Light Snow
1:15 AM 6.1 °F - 4.8 °F 95% 30.12 in 10.0 mi Calm Calm - N/A   Clear
1:35 AM 5.7 °F - 3.6 °F 91% 30.12 in 1.5 mi Calm Calm - N/A   Mist
1:55 AM 4.8 °F - 3.4 °F 94% 30.13 in 10.0 mi Calm Calm - N/A   Clear
2:14 AM 3.0 °F - 0.3 °F 88% 30.13 in 10.0 mi Calm Calm - N/A   Clear
2:35 AM 1.9 °F - -0.9 °F 88% 30.13 in 10.0 mi Calm Calm - N/A   Clear
2:55 AM 1.4 °F - -1.1 °F 89% 30.14 in 10.0 mi Calm Calm - N/A   Clear
3:14 AM 3.2 °F - 0.7 °F 89% 30.14 in 10.0 mi Calm Calm - N/A   Clear
3:35 AM 4.3 °F - 1.6 °F 89% 30.13 in 10.0 mi Calm Calm - N/A   Clear
3:55 AM 5.0 °F - 2.5 °F 89% 30.13 in 10.0 mi Calm Calm - N/A   Clear
4:14 AM 7.0 °F - 4.6 °F 90% 30.13 in 10.0 mi Calm Calm - N/A   Clear
4:35 AM 7.5 °F - 4.3 °F 87% 30.14 in 10.0 mi Calm Calm - N/A   Clear
4:55 AM 8.2 °F - 4.8 °F 86% 30.14 in 10.0 mi Calm Calm - N/A   Clear
5:14 AM 8.2 °F - 5.7 °F 89% 30.14 in 10.0 mi Calm Calm - N/A   Scattered Clouds
5:35 AM 10.4 °F - 6.8 °F 85% 30.14 in 10.0 mi Calm Calm - N/A   Mostly Cloudy
5:55 AM 10.2 °F - 6.8 °F 86% 30.15 in 10.0 mi Calm Calm - N/A   Overcast
6:15 AM 10.2 °F - 7.3 °F 88% 30.15 in 10.0 mi Calm Calm - N/A   Overcast
6:35 AM 10.8 °F - 8.1 °F 89% 30.15 in 10.0 mi Calm Calm - N/A   Overcast
6:55 AM 11.1 °F - 8.6 °F 90% 30.16 in 7.0 mi Calm Calm - N/A Snow Light Snow
7:15 AM 12.0 °F - 9.0 °F 88% 30.16 in 7.0 mi Calm Calm - N/A Snow Light Snow
7:35 AM 13.1 °F - 9.5 °F 86% 30.16 in 5.0 mi Calm Calm - N/A Snow Light Snow
7:55 AM 13.3 °F - 10.0 °F 87% 30.16 in 5.0 mi Calm Calm - N/A Snow Light Snow
8:15 AM 15.1 °F - 12.0 °F 88% 30.16 in 5.0 mi Calm Calm - N/A Snow Light Snow
8:35 AM 17.4 °F 12.1 °F 15.4 °F 92% 30.16 in 7.0 mi SE 3.5 mph - N/A Snow Light Snow
8:55 AM 17.6 °F - 15.4 °F 91% 30.16 in 4.0 mi Calm Calm - N/A Snow Light Snow
9:15 AM 17.6 °F 10.7 °F 15.4 °F 91% 30.17 in 1.8 mi SE 4.6 mph - N/A Snow Light Snow
9:35 AM 17.6 °F 9.3 °F 15.4 °F 91% 30.17 in 1.5 mi SE 5.8 mph - N/A Snow Light Snow
9:55 AM 17.6 °F 9.3 °F 15.4 °F 91% 30.17 in 1.0 mi ESE 5.8 mph - N/A Snow Light Snow
10:15 AM 18.1 °F 8.9 °F 15.6 °F 90% 30.17 in 0.8 mi SE 6.9 mph - N/A Snow Light Snow
10:35 AM 18.1 °F 8.9 °F 15.6 °F 90% 30.17 in 0.5 mi ESE 6.9 mph - N/A Snow Light Snow
10:55 AM 18.3 °F 10.2 °F 15.8 °F 90% 30.17 in 1.0 mi ESE 5.8 mph - N/A Snow Light Snow
11:15 AM 18.5 °F 9.3 °F 16.2 °F 91% 30.17 in 1.0 mi ESE 6.9 mph - N/A Snow Light Snow
11:35 AM 18.9 °F 10.8 °F 16.5 °F 91% 30.16 in 1.0 mi ESE 5.8 mph - N/A Snow Light Snow
11:55 AM 19.2 °F 10.2 °F 16.7 °F 90% 30.15 in 0.8 mi SE 6.9 mph - N/A Snow Light Snow
12:15 PM 19.4 °F 10.4 °F 16.9 °F 90% 30.14 in 0.8 mi SE 6.9 mph - N/A Snow Light Snow
12:35 PM 19.8 °F 11.9 °F 16.9 °F 89% 30.15 in 1.0 mi ESE 5.8 mph - N/A Snow Light Snow
12:55 PM 19.8 °F 11.9 °F 16.9 °F 89% 30.14 in 1.5 mi ESE 5.8 mph - N/A Snow Light Snow
1:15 PM 20.1 °F 13.6 °F 17.2 °F 89% 30.14 in 2.0 mi SE 4.6 mph - N/A Snow Light Snow
1:35 PM 20.3 °F 10.6 °F 17.1 °F 87% 30.14 in 3.0 mi SE 8.1 mph - N/A Snow Light Snow
1:55 PM 20.3 °F 11.5 °F 16.7 °F 86% 30.14 in 10.0 mi SE 6.9 mph - N/A Snow Light Snow
2:15 PM 20.3 °F 12.5 °F 16.9 °F 87% 30.14 in 10.0 mi SE 5.8 mph - N/A Snow Light Snow
2:35 PM 20.3 °F 11.5 °F 17.1 °F 87% 30.14 in 5.0 mi ESE 6.9 mph - N/A Snow Light Snow
2:55 PM 20.3 °F 11.5 °F 17.4 °F 89% 30.15 in 2.5 mi ESE 6.9 mph - N/A Snow Light Snow
3:15 PM 20.3 °F 12.5 °F 17.6 °F 89% 30.15 in 1.8 mi ESE 5.8 mph - N/A Snow Light Snow
3:35 PM 20.7 °F 14.2 °F 17.8 °F 89% 30.16 in 2.0 mi SE 4.6 mph - N/A Snow Light Snow
3:54 PM 20.7 °F 13.0 °F 17.4 °F 87% 30.17 in 4.0 mi SE 5.8 mph - N/A Snow Light Snow
4:15 PM 20.5 °F 14.0 °F 18.0 °F 90% 30.18 in 1.5 mi ESE 4.6 mph - N/A Snow Light Snow
4:35 PM 20.3 °F 13.8 °F 18.1 °F 91% 30.19 in 1.0 mi ESE 4.6 mph - N/A Snow Light Snow
4:54 PM 20.3 °F 13.8 °F 18.3 °F 92% 30.20 in 0.8 mi ESE 4.6 mph - N/A Snow Light Snow
5:15 PM 20.1 °F 15.2 °F 18.1 °F 92% 30.21 in 0.5 mi ESE 3.5 mph - N/A Snow Snow
5:35 PM 19.2 °F - 17.4 °F 93% 30.22 in 1.8 mi Calm Calm - N/A Snow Light Snow
5:54 PM 18.5 °F - 17.1 °F 94% 30.23 in 2.0 mi Calm Calm - N/A Snow Light Snow
6:15 PM 18.9 °F - 17.4 °F 94% 30.24 in 4.0 mi Calm Calm - N/A Snow Light Snow
6:35 PM 19.0 °F - 17.8 °F 95% 30.25 in 3.0 mi Calm Calm - N/A Snow Light Snow
6:54 PM 18.7 °F 13.5 °F 17.4 °F 95% 30.25 in 5.0 mi East 3.5 mph - N/A Snow Light Snow
7:15 PM 16.5 °F 11.0 °F 15.3 °F 95% 30.26 in 10.0 mi East 3.5 mph - N/A Snow Light Snow
7:35 PM 14.2 °F - 13.1 °F 95% 30.27 in 10.0 mi Calm Calm - N/A Snow Light Snow
7:54 PM 15.8 °F - 15.4 °F 98% 30.28 in 10.0 mi Calm Calm - N/A Snow Light Snow
8:15 PM 14.9 °F - 13.1 °F 93% 30.29 in 10.0 mi Calm Calm - N/A Snow Light Snow
8:35 PM 14.0 °F - 12.2 °F 93% 30.29 in 10.0 mi Calm Calm - N/A   Overcast
8:55 PM 14.0 °F - 12.2 °F 93% 30.30 in 10.0 mi Calm Calm - N/A Snow Light Snow
9:15 PM 16.2 °F - 14.5 °F 93% 30.30 in 10.0 mi Calm Calm - N/A   Overcast
9:34 PM 15.4 °F - 14.7 °F 97% 30.31 in 10.0 mi Calm Calm - N/A   Overcast
9:55 PM 14.0 °F - 12.0 °F 92% 30.32 in 10.0 mi Calm Calm - N/A   Overcast
10:15 PM 15.1 °F 9.4 °F 14.0 °F 95% 30.32 in 10.0 mi East 3.5 mph - N/A   Overcast
10:34 PM 14.9 °F 9.2 °F 13.8 °F 95% 30.32 in 10.0 mi ENE 3.5 mph - N/A   Overcast
10:55 PM 14.9 °F - 14.0 °F 96% 30.33 in 10.0 mi Calm Calm - N/A   Overcast
11:15 PM 14.9 °F - 14.4 °F 98% 30.34 in 10.0 mi Calm Calm - N/A   Overcast
11:34 PM 14.0 °F - 12.4 °F 93% 30.35 in 10.0 mi Calm Calm - N/A   Overcast
11:55 PM 14.7 °F - 12.9 °F 93% 30.35 in 10.0 mi Calm Calm - N/A   Overcast